When you browse on this site, cookies collect data to enhance your experience and personalize the content and advertising you see.
Visit our Privacy Policy to learn more. By continuing to use the site, you agree to this use of cookies and data.

Hourly Weather Klevischi

Today, 15 July, Wednesday

Time Temperature Precipitation Wind Pressure Humidity
00:00 +13°C° 1.7 mm 6 mps 740 mmHg 96%
01:00 +13°C° 1.7 mm 6 mps 740 mmHg 96%
02:00 +13°C° 1.7 mm 6 mps 740 mmHg 97%
03:00 +11°C° 2.6 mm 6 mps 740 mmHg 97%
04:00 +11°C° 2.6 mm 6 mps 740 mmHg 97%
05:00 +11°C° 2.6 mm 6 mps 740 mmHg 97%
06:00 +11°C° 0.9 mm 6 mps 740 mmHg 97%
07:00 +11°C° 0.9 mm 6 mps 740 mmHg 97%
08:00 +11°C° 0.9 mm 6 mps 740 mmHg 96%
09:00 +13°C° 0.1 mm 6 mps 740 mmHg 96%
10:00 +13°C° 0.1 mm 6 mps 740 mmHg 95%
11:00 +13°C° 0.1 mm 6 mps 740 mmHg 94%
12:00 +14°C° 0.1 mm 6 mps 740 mmHg 92%
13:00 +15°C° 0.1 mm 5 mps 740 mmHg 89%
14:00 +16°C° 0.1 mm 5 mps 740 mmHg 87%
15:00 +16°C° 0.1 mm 5 mps 739 mmHg 87%
16:00 +16°C° 0.1 mm 5 mps 739 mmHg 88%
17:00 +16°C° 0.1 mm 5 mps 739 mmHg 88%
18:00 +15°C° 0.4 mm 5 mps 739 mmHg 90%
19:00 +14°C° 0.4 mm 5 mps 739 mmHg 92%
20:00 +14°C° 0.4 mm 4 mps 739 mmHg 94%
21:00 +14°C° 1.6 mm 4 mps 739 mmHg 95%
22:00 +13°C° 1.6 mm 4 mps 738 mmHg 97%
23:00 +13°C° 1.6 mm 4 mps 738 mmHg 98%

Tomorrow, 16 July, Thursday

Time Temperature Precipitation Wind Pressure Humidity
00:00 +13°C° 0.7 mm 4 mps 738 mmHg 98%
01:00 +13°C° 0.7 mm 3 mps 738 mmHg 98%
02:00 +13°C° 0.7 mm 3 mps 738 mmHg 98%
03:00 +14°C° 0.6 mm 2 mps 738 mmHg 98%
04:00 +14°C° 0.6 mm 2 mps 737 mmHg 98%
05:00 +14°C° 0.6 mm 1 mps 737 mmHg 98%
06:00 +14°C° 0.6 mm 1 mps 738 mmHg 96%
07:00 +15°C° 0.6 mm 1 mps 738 mmHg 94%
08:00 +16°C° 0.6 mm 1 mps 738 mmHg 92%
09:00 +16°C° 0.4 mm 1 mps 738 mmHg 91%
10:00 +16°C° 0.4 mm 2 mps 738 mmHg 91%
11:00 +17°C° 0.4 mm 2 mps 739 mmHg 90%
12:00 +17°C° 0.9 mm 2 mps 739 mmHg 90%
13:00 +17°C° 0.9 mm 2 mps 739 mmHg 89%
14:00 +17°C° 0.9 mm 2 mps 739 mmHg 89%
15:00 +17°C° 0.4 mm 2 mps 739 mmHg 90%
16:00 +16°C° 0.4 mm 3 mps 740 mmHg 92%
17:00 +16°C° 0.4 mm 3 mps 740 mmHg 93%
18:00 +14°C° 0.1 mm 3 mps 740 mmHg 94%
19:00 +14°C° 0.1 mm 3 mps 740 mmHg 95%
20:00 +14°C° 0.1 mm 3 mps 740 mmHg 96%
21:00 +14°C° 0.1 mm 3 mps 740 mmHg 96%
22:00 +13°C° 0.1 mm 3 mps 740 mmHg 96%
23:00 +13°C° 0.1 mm 3 mps 740 mmHg 97%

Day after tomorrow, 17 July, Friday

Time Temperature Precipitation Wind Pressure Humidity
00:00 +13°C° 0.1 mm 3 mps 741 mmHg 97%
01:00 +13°C° 0.1 mm 3 mps 741 mmHg 97%
02:00 +13°C° 0.1 mm 3 mps 741 mmHg 97%
03:00 +13°C° 0.2 mm 3 mps 741 mmHg 97%
04:00 +13°C° 0.2 mm 3 mps 741 mmHg 98%
05:00 +13°C° 0.2 mm 3 mps 741 mmHg 98%
06:00 +13°C° 0.1 mm 3 mps 742 mmHg 97%
07:00 +13°C° 0.1 mm 3 mps 742 mmHg 96%
08:00 +14°C° 0.1 mm 3 mps 742 mmHg 95%
09:00 +14°C° 0.2 mm 3 mps 742 mmHg 93%
10:00 +16°C° 0.2 mm 3 mps 743 mmHg 91%
11:00 +17°C° 0.2 mm 3 mps 743 mmHg 89%
12:00 +17°C° 0.5 mm 3 mps 743 mmHg 88%
13:00 +17°C° 0.5 mm 3 mps 743 mmHg 88%
14:00 +18°C° 0.5 mm 4 mps 744 mmHg 87%
15:00 +18°C° 0.2 mm 3 mps 744 mmHg 86%
16:00 +18°C° 0.2 mm 3 mps 744 mmHg 84%
17:00 +18°C° 0.2 mm 3 mps 744 mmHg 83%
18:00 +17°C° 0.1 mm 2 mps 744 mmHg 87%
19:00 +16°C° 0.1 mm 2 mps 744 mmHg 91%
20:00 +15°C° 0.1 mm 2 mps 745 mmHg 95%
21:00 +14°C° 0 mm 2 mps 745 mmHg 95%
22:00 +13°C° 0 mm 2 mps 745 mmHg 96%
23:00 +12°C° 0 mm 2 mps 745 mmHg 97%

18 July, Saturday

Time Temperature Precipitation Wind Pressure Humidity
00:00 +12°C° 0 mm 2 mps 745 mmHg 97%
01:00 +12°C° 0 mm 2 mps 746 mmHg 97%
02:00 +12°C° 0 mm 2 mps 746 mmHg 98%
03:00 +12°C° 0 mm 2 mps 746 mmHg 97%
04:00 +12°C° 0 mm 2 mps 746 mmHg 97%
05:00 +13°C° 0 mm 2 mps 746 mmHg 96%
06:00 +14°C° 0 mm 2 mps 747 mmHg 93%
07:00 +15°C° 0 mm 2 mps 747 mmHg 89%
08:00 +16°C° 0 mm 2 mps 747 mmHg 86%
09:00 +17°C° 0 mm 2 mps 747 mmHg 78%
10:00 +19°C° 0 mm 2 mps 747 mmHg 70%
11:00 +20°C° 0 mm 3 mps 747 mmHg 62%
12:00 +21°C° 0 mm 3 mps 747 mmHg 58%
13:00 +22°C° 0 mm 3 mps 747 mmHg 54%
14:00 +24°C° 0 mm 3 mps 747 mmHg 50%
15:00 +22°C° 0 mm 3 mps 747 mmHg 53%
16:00 +23°C° 0 mm 2 mps 747 mmHg 57%
17:00 +23°C° 0 mm 2 mps 747 mmHg 61%
18:00 +20°C° 0 mm 2 mps 747 mmHg 68%
19:00 +18°C° 0 mm 2 mps 747 mmHg 75%
20:00 +18°C° 0 mm 1 mps 747 mmHg 81%
21:00 +16°C° 0 mm 1 mps 747 mmHg 85%
22:00 +15°C° 0 mm 1 mps 748 mmHg 88%
23:00 +14°C° 0 mm 1 mps 748 mmHg 91%

19 July, Sunday

Time Temperature Precipitation Wind Pressure Humidity
00:00 +14°C° 0 mm 1 mps 748 mmHg 92%
01:00 +14°C° 0 mm 2 mps 748 mmHg 93%
02:00 +13°C° 0 mm 2 mps 748 mmHg 95%
03:00 +14°C° 0 mm 2 mps 748 mmHg 93%
04:00 +14°C° 0 mm 2 mps 748 mmHg 92%
05:00 +15°C° 0 mm 2 mps 748 mmHg 90%
06:00 +16°C° 0 mm 2 mps 748 mmHg 83%
07:00 +18°C° 0 mm 2 mps 748 mmHg 76%
08:00 +20°C° 0 mm 2 mps 748 mmHg 68%
09:00 +21°C° 0 mm 2 mps 748 mmHg 62%
10:00 +23°C° 0 mm 2 mps 748 mmHg 56%
11:00 +24°C° 0 mm 2 mps 748 mmHg 50%
12:00 +25°C° 0 mm 2 mps 748 mmHg 49%
13:00 +25°C° 0 mm 2 mps 748 mmHg 48%
14:00 +25°C° 0 mm 2 mps 748 mmHg 46%
15:00 +25°C° 0 mm 2 mps 747 mmHg 51%
16:00 +25°C° 0 mm 2 mps 747 mmHg 55%
17:00 +25°C° 0 mm 2 mps 747 mmHg 59%
18:00 +22°C° 0 mm 1 mps 747 mmHg 65%
19:00 +20°C° 0 mm 1 mps 747 mmHg 70%
20:00 +18°C° 0 mm 1 mps 747 mmHg 76%
21:00 +16°C° 0 mm 1 mps 747 mmHg 77%
22:00 +15°C° 0 mm 1 mps 747 mmHg 79%
23:00 +15°C° 0 mm 1 mps 747 mmHg 81%

20 July, Monday

Time Temperature Precipitation Wind Pressure Humidity
00:00 +14°C° 0 mm 1 mps 747 mmHg 84%
01:00 +14°C° 0 mm 1 mps 747 mmHg 87%
02:00 +14°C° 0 mm 1 mps 747 mmHg 89%
03:00 +14°C° 0 mm 1 mps 747 mmHg 89%
04:00 +14°C° 0 mm 1 mps 747 mmHg 89%
05:00 +15°C° 0 mm 1 mps 747 mmHg 89%
06:00 +16°C° 0 mm 2 mps 747 mmHg 83%
07:00 +18°C° 0 mm 2 mps 747 mmHg 76%
08:00 +20°C° 0 mm 2 mps 747 mmHg 70%
09:00 +21°C° 0 mm 2 mps 747 mmHg 66%
10:00 +22°C° 0 mm 3 mps 747 mmHg 62%
11:00 +24°C° 0 mm 3 mps 747 mmHg 58%
12:00 +24°C° 0 mm 3 mps 746 mmHg 55%
13:00 +24°C° 0 mm 3 mps 746 mmHg 53%
14:00 +24°C° 0 mm 3 mps 746 mmHg 50%
15:00 +24°C° 0 mm 3 mps 746 mmHg 52%
16:00 +22°C° 0 mm 3 mps 746 mmHg 55%
17:00 +23°C° 0 mm 2 mps 746 mmHg 57%
18:00 +20°C° 0 mm 2 mps 745 mmHg 62%
19:00 +18°C° 0 mm 2 mps 745 mmHg 68%
20:00 +16°C° 0 mm 1 mps 745 mmHg 73%
21:00 +15°C° 0 mm 1 mps 745 mmHg 75%
22:00 +14°C° 0 mm 1 mps 745 mmHg 77%
23:00 +13°C° 0 mm 1 mps 745 mmHg 78%
Show more